(200062) = 2001 WY82 = 2008 QT16

Discovered at La Sagra on 2008-08-26 by OAM.

Orbit

Orbit type: Main Belt

Note: WebGL enabled browser required.

epoch2023-09-13.0
epoch JD2460200.5
perihelion date2023-04-10.75103
perihelion JD2460045.25103
argument of perihelion (°)135.33312
ascending node (°)196.39101
inclination (°)1.63578
eccentricity0.1992094
perihelion distance (AU)1.9067801
Tisserand w.r.t. Jupiter3.5
ΔV w.r.t. Earth (km/sec)8.6
semimajor axis (AU)2.3811221
mean anomaly (°)41.64473
mean daily motion (°/day)0.26824480
aphelion distance (AU)2.855
period (years)3.67
P-vector [x]0.88059611
P-vector [y]-0.44235729
P-vector [z]-0.16991327
Q-vector [x]0.47379912
Q-vector [y]0.81582586
Q-vector [z]0.33157589
absolute magnitude17.59
phase slope0.15
uncertainty0
referenceMPEC 2024-A12
observations used312
oppositions15
arc length (days)8642
first opposition used2000
last opposition used2024
residual rms (arc-secs)0.81
perturbers coarse indicatorM-v
perturbers precise indicator003Ek
first observation date used2000-05-04.0
last observation date used2024-01-01.0
computer nameMPCLINUX
JD of orbit computation2456731.629441
perihelion JD uncertainty (days)5.9056E-05
argument of perihelion uncertainty (°)1.5812E-04
ascending node uncertainty (°)1.5745E-04
inclination uncertainty (°)6.1209E-06
eccentricity uncertainty 4.8170E-08
perihelion distance uncertainty (AU)1.1203E-07
Minimum Orbit Intersection Distances (in AU)
for orbit epoch: 2460200.5, reference: E2024-A12
Mercury1.50314
Venus1.18237
Earth0.89604
Mars0.53157
Jupiter2.49598
Saturn6.35294
Uranus15.6018
Neptune27.4865

Observations

316 total observations over interval: 2000 05 04.26590 – 2024 01 01.255222
These data are available for download (format description).

Date (UT) J2000 RA J2000 Dec Magn Location Ref
2000 05 04.26590 14 35 28.55 -13 58 10.1 21.3 V 691 – Steward Observatory, Kitt Peak-Spacewatch MPS 255945
2000 05 04.28796 14 35 27.14 -13 58 03.2 21.4 V 691 – Steward Observatory, Kitt Peak-Spacewatch MPS 255945
2000 05 04.31009 14 35 25.79 -13 57 56.0 21.4 V 691 – Steward Observatory, Kitt Peak-Spacewatch MPS 255945
2001 11 20.30375 03 46 48.32 +17 57 21.8 20.0   704 – Lincoln Laboratory ETS, New Mexico MPS 49689
2001 11 20.33308 03 46 46.35 +17 57 13.8 19.3   704 – Lincoln Laboratory ETS, New Mexico MPS 49689
2001 11 20.34776 03 46 45.38 +17 57 10.0 19.5   704 – Lincoln Laboratory ETS, New Mexico MPS 49689
2001 11 21.24872 03 45 47.11 +17 53 31.8 20.1   704 – Lincoln Laboratory ETS, New Mexico MPS 49689
2001 11 21.26339 03 45 46.09 +17 53 28.6 20.0   704 – Lincoln Laboratory ETS, New Mexico MPS 49689
2001 11 21.27806 03 45 45.10 +17 53 24.3 20.4   704 – Lincoln Laboratory ETS, New Mexico MPS 49689
2001 11 21.29273 03 45 44.14 +17 53 21.0 20.0   704 – Lincoln Laboratory ETS, New Mexico MPS 49689
2001 12 10.27523 03 27 50.97 +16 47 02.7 21.7 V 691 – Steward Observatory, Kitt Peak-Spacewatch MPS 255945
2001 12 10.29754 03 27 49.93 +16 46 59.0 21.3 V 691 – Steward Observatory, Kitt Peak-Spacewatch MPS 255945
2001 12 10.32009 03 27 48.88 +16 46 55.8 21.8 V 691 – Steward Observatory, Kitt Peak-Spacewatch MPS 255945
2005 12 01.44509 07 04 23.03 +20 12 07.7 21.2 V 691 – Steward Observatory, Kitt Peak-Spacewatch MPS 255945
2005 12 01.46246 07 04 22.26 +20 12 08.2 21.3 V 691 – Steward Observatory, Kitt Peak-Spacewatch MPS 255945
2005 12 01.47982 07 04 21.52 +20 12 08.3 21.0 V 691 – Steward Observatory, Kitt Peak-Spacewatch MPS 255945
2005 12 29.16101 06 37 10.87 +20 33 20.2   691 – Steward Observatory, Kitt Peak-Spacewatch MPS 255945
2005 12 29.18176 06 37 09.45 +20 33 21.6   691 – Steward Observatory, Kitt Peak-Spacewatch MPS 255945
2005 12 29.19913 06 37 08.22 +20 33 22.8   691 – Steward Observatory, Kitt Peak-Spacewatch MPS 255945
2006 01 24.10261 06 11 49.50 +20 56 42.9   691 – Steward Observatory, Kitt Peak-Spacewatch MPS 255945
2006 01 24.12057 06 11 48.68 +20 56 43.9   691 – Steward Observatory, Kitt Peak-Spacewatch MPS 255945
2006 01 24.13854 06 11 47.91 +20 56 45.3   691 – Steward Observatory, Kitt Peak-Spacewatch MPS 255945
2007 03 26.29459 12 19 01.09 -02 36 23.7 20.3 V G96 – Mt. Lemmon Survey MPS 255945
2007 03 26.30287 12 19 00.62 -02 36 20.9 20.8 V G96 – Mt. Lemmon Survey MPS 255945
2007 03 26.31109 12 19 00.15 -02 36 17.4 20.9 V G96 – Mt. Lemmon Survey MPS 255945
2007 03 26.31928 12 18 59.65 -02 36 14.6 20.8 V G96 – Mt. Lemmon Survey MPS 255945
2007 04 07.26710 12 08 09.16 -01 18 52.8 21.3 V G96 – Mt. Lemmon Survey MPS 255945
2007 04 07.27341 12 08 08.88 -01 18 51.0 21.7 V G96 – Mt. Lemmon Survey MPS 255945
2007 04 07.27982 12 08 08.52 -01 18 48.3 21.9 V G96 – Mt. Lemmon Survey MPS 255945
2007 04 07.28607 12 08 08.16 -01 18 45.0 22.1 V G96 – Mt. Lemmon Survey MPS 255945
2007 04 15.25698 12 01 37.34 -00 31 24.9 21.2 V G96 – Mt. Lemmon Survey MPS 255945
2007 04 15.26576 12 01 36.94 -00 31 22.5 22.1 V G96 – Mt. Lemmon Survey MPS 255945
2007 04 15.27466 12 01 36.48 -00 31 19.1 20.7 V G96 – Mt. Lemmon Survey MPS 255945
2007 04 15.28345 12 01 36.12 -00 31 16.9 21.9 V G96 – Mt. Lemmon Survey MPS 255945
2008 08 24.32722 23 32 25.57 -00 55 13.5   704 – Lincoln Laboratory ETS, New Mexico MPS 406900
2008 08 24.33975 23 32 25.08 -00 55 17.3   704 – Lincoln Laboratory ETS, New Mexico MPS 406900
2008 08 24.35227 23 32 24.55 -00 55 21.0   704 – Lincoln Laboratory ETS, New Mexico MPS 406900
2008 08 24.36481 23 32 24.19 -00 55 23.9   704 – Lincoln Laboratory ETS, New Mexico MPS 406900
2008 08 24.37732 23 32 23.68 -00 55 27.5   704 – Lincoln Laboratory ETS, New Mexico MPS 406900
2008 08 26.04425 23 31 24.89 -01 03 15.3 18.8 V J75 – OAM Observatory, La Sagra MPS 255258
2008 08 26.05745 23 31 24.38 -01 03 19.5 18.9 V J75 – OAM Observatory, La Sagra MPS 255258
2008 08 26.07063 23 31 23.86 -01 03 23.6 18.9 V J75 – OAM Observatory, La Sagra MPS 255258
2008 08 29.04105 23 29 29.84 -01 18 28.4 19.2 V J75 – OAM Observatory, La Sagra MPS 255258
2008 08 29.05417 23 29 29.33 -01 18 33.0 19.3 V J75 – OAM Observatory, La Sagra MPS 255258
2008 08 29.06730 23 29 28.71 -01 18 36.7 19.2 V J75 – OAM Observatory, La Sagra MPS 255258
2008 09 06.27715 23 23 29.22 -02 06 38.6 19.0 V 703 – Catalina Sky Survey MPS 255945
2008 09 06.28458 23 23 28.68 -02 06 40.8 19.2 V 703 – Catalina Sky Survey MPS 255945
2008 09 06.29198 23 23 28.50 -02 06 43.2 19.2 V 703 – Catalina Sky Survey MPS 255945
2008 09 06.29939 23 23 28.10 -02 06 47.0 19.1 V 703 – Catalina Sky Survey MPS 255946
2008 09 07.26560 23 22 43.10 -02 12 51.3 19.1 V G96 – Mt. Lemmon Survey MPS 255946
2008 09 07.27201 23 22 42.78 -02 12 54.0 19.1 V G96 – Mt. Lemmon Survey MPS 255946
2008 09 07.27852 23 22 42.45 -02 12 56.3 19.0 V G96 – Mt. Lemmon Survey MPS 255946
2008 09 07.28498 23 22 42.13 -02 12 58.8 19.1 V G96 – Mt. Lemmon Survey MPS 255946
2008 09 21.20620 23 12 03.27 -03 41 44.1 19.0 V G96 – Mt. Lemmon Survey MPS 256801
2008 09 21.21279 23 12 02.95 -03 41 46.5 19.2 V G96 – Mt. Lemmon Survey MPS 256801
2008 09 21.21954 23 12 02.66 -03 41 48.8 19.1 V G96 – Mt. Lemmon Survey MPS 256801
2008 09 21.22637 23 12 02.34 -03 41 51.5 19.3 V G96 – Mt. Lemmon Survey MPS 256801
2008 09 22.22916 23 11 20.52 -03 47 54.9 19.4   704 – Lincoln Laboratory ETS, New Mexico MPS 256801
2008 09 22.24121 23 11 19.98 -03 47 59.0 20.1   704 – Lincoln Laboratory ETS, New Mexico MPS 256801
2008 09 22.25328 23 11 19.42 -03 48 03.5 19.3   704 – Lincoln Laboratory ETS, New Mexico MPS 256801
2008 09 22.26543 23 11 18.91 -03 48 08.2 19.5   704 – Lincoln Laboratory ETS, New Mexico MPS 256801
2008 09 22.27748 23 11 18.34 -03 48 11.7 19.6   704 – Lincoln Laboratory ETS, New Mexico MPS 256801
2008 09 23.53772 23 10 27.40 -03 55 31.6 18.8 V E12 – Siding Spring Survey MPS 256801
2008 09 23.54369 23 10 27.12 -03 55 34.8 19.2 V E12 – Siding Spring Survey MPS 256801
2008 09 23.54974 23 10 26.86 -03 55 36.3 18.8 V E12 – Siding Spring Survey MPS 256801
2008 09 23.55572 23 10 26.61 -03 55 37.4 19.3 V E12 – Siding Spring Survey MPS 256801
2008 09 24.22584 23 10 00.29 -03 59 43.1 19.2   704 – Lincoln Laboratory ETS, New Mexico MPS 256801
2008 09 24.23792 23 09 59.84 -03 59 47.1 19.6   704 – Lincoln Laboratory ETS, New Mexico MPS 256801
2008 09 24.25001 23 09 59.28 -03 59 51.4 19.8   704 – Lincoln Laboratory ETS, New Mexico MPS 256801
2008 09 24.26211 23 09 58.78 -03 59 55.6 19.4   704 – Lincoln Laboratory ETS, New Mexico MPS 256801
2008 09 24.27418 23 09 58.26 -03 59 59.9 19.6   704 – Lincoln Laboratory ETS, New Mexico MPS 256801
2008 09 29.28616 23 06 58.82 -04 27 19.2 19.2 V 703 – Catalina Sky Survey MPS 258046
2008 09 29.29403 23 06 58.50 -04 27 20.1 19.7 V 703 – Catalina Sky Survey MPS 258046
2008 09 29.30197 23 06 58.24 -04 27 23.8 18.8 V 703 – Catalina Sky Survey MPS 258046
2008 09 29.30984 23 06 58.10 -04 27 26.1 19.1 V 703 – Catalina Sky Survey MPS 258046
2008 10 02.23951 23 05 30.40 -04 41 36.7 19.5 V G96 – Mt. Lemmon Survey MPS 258046
2008 10 02.24608 23 05 30.15 -04 41 38.8 19.9 V G96 – Mt. Lemmon Survey MPS 258046
2008 10 02.25259 23 05 29.94 -04 41 40.8 19.9 V G96 – Mt. Lemmon Survey MPS 258046
2008 10 02.25909 23 05 29.76 -04 41 42.6 19.9 V G96 – Mt. Lemmon Survey MPS 258046
2008 11 24.11521 23 23 10.32 -04 01 16.1 20.8 V G96 – Mt. Lemmon Survey MPS 267346
2008 11 24.12075 23 23 10.64 -04 01 14.3 20.7 V G96 – Mt. Lemmon Survey MPS 267346
2008 11 24.12631 23 23 11.00 -04 01 12.5 21.1 V G96 – Mt. Lemmon Survey MPS 267346
2008 11 24.13197 23 23 11.32 -04 01 10.0 20.9 V G96 – Mt. Lemmon Survey MPS 267346
2010 02 18.19935 08 22 53.14 +17 08 38.9 21.3 V G96 – Mt. Lemmon Survey MPS 316477
2010 02 18.20296 08 22 52.93 +17 08 39.3 21.2 V G96 – Mt. Lemmon Survey MPS 316477
2010 02 18.20655 08 22 52.78 +17 08 40.3 22.3 V G96 – Mt. Lemmon Survey MPS 316477
2010 02 18.21019 08 22 52.57 +17 08 40.5 21.9 V G96 – Mt. Lemmon Survey MPS 316477
2011 03 29.40522 14 50 34.71 -15 42 15.7 21.4 V 691 – Steward Observatory, Kitt Peak-Spacewatch MPS 376933
2011 03 29.42299 14 50 34.26 -15 42 13.3 21.7 V 691 – Steward Observatory, Kitt Peak-Spacewatch MPS 376933
